Regional Weather Roundup
Issued by NWS

Home | Current Version | Previous Version | Graphics & Text | Print | Product List | Glossary On
Versions: 1 2 3 4 5 6 7 8 9 10 11 12 13 14 15 16 17 18 19 20 21 22 23 24 25 26 27 28 29 30 31 32 33 34 35 36
000
ASUS45 KCYS 221010
RWRWY

WYOMING REGIONAL WEATHER ROUNDUP
NATIONAL WEATHER SERVICE CHEYENNE WY
400 AM MDT WED OCT 22 2014

NOTE:  "FAIR" INDICATES FEW OR NO CLOUDS BELOW 12,000 FEET
WITH NO SIGNIFICANT WEATHER AND/OR OBSTRUCTIONS TO VISIBILITY.

WYZ001-221100-
YELLOWSTONE NATIONAL PARK

CITY           SKY/WX    TMP DP  RH WIND       PRES   REMARKS
LK YELLOWSTONE   N/A     26  25  96 CALM      30.14S
W YELLOWSTONE  NOT AVBL

$$
WYZ002>013-054>058-071-098>099-221100-
NORTHERN WYOMING

CITY           SKY/WX    TMP DP  RH WIND       PRES   REMARKS
JACKSON        MOCLDY    34  30  86 CALM      30.13R
CODY           CLEAR    N/A N/A N/A NW7       30.00S
GREYBULL       CLEAR     36  22  56 E6        29.99R WCI  31
WORLAND        CLEAR     36  22  56 CALM      30.00R
SHERIDAN       CLEAR     45  27  49 NW8       29.98R
BUFFALO        PTCLDY    38  24  57 SW3       29.99R
GILLETTE       CLOUDY    41  30  65 W3        29.98R
HULETT         FAIR      46  32  57 W5        29.99
NEWCASTLE      FAIR      50  32  50 NW15G21   29.95

$$
WYZ014>020-022>026-101>103-221100-
CENTRAL WYOMING

CITY           SKY/WX    TMP DP  RH WIND       PRES   REMARKS
BIG PINEY      CLEAR     23  19  85 CALM      30.16S
PINEDALE       SUNNY     23  23 100 CALM      30.16S
DUBOIS         CLOUDY    36  25  64 NW13      30.09R WCI  27
LANDER         CLEAR     35  22  58 SW6       30.03S WCI  30
RIVERTON       CLEAR     38  22  52 W12       30.05R WCI  30
CASPER         MOCLDY    42  21  43 W9        30.03R
DOUGLAS        CLOUDY    48  24  39 W10       30.02R

$$
WYZ021-027>030-104>119-221100-
SOUTHERN WYOMING

CITY           SKY/WX    TMP DP  RH WIND       PRES   REMARKS
EVANSTON       CLEAR     34  25  69 CALM      30.16R
FORT BRIDGER   FAIR      36  28  74 W3        30.18R
ROCK SPRINGS   CLEAR     35  26  69 NW5       30.15R WCI  31
DIXON          CLOUDY    43  40  89 SE3       30.15S
RAWLINS        PTCLDY    40  34  79 W15       30.11R WCI  32
SARATOGA       FAIR      39  34  81 SW10      30.12F WCI  32
LARAMIE        CLOUDY    44  35  70 W13       30.07F
CHEYENNE       MOCLDY    48  36  63 CALM      30.02F
TORRINGTON     CLOUDY    52  44  74 W8        29.94S
PINE BLUFFS    FAIR      46  45  93 W6        30.00S

$$



USA.gov is the U.S. government's official web portal to all federal, state and local government web resources and services.